Wind_Speed
9 10 10 13 16 14 15 16 17 16 18 20 20 17 14 11 10 9 9 7 7 8 9 11 13 15 17 18 18 19 20 19 21 25 31 24 23 17 13 29 27 27 20
13 15 14 14 16 19 20 22 22 22 21 19 15 13 12 13 12 10 8 7 8 10 12 15 18 19 18 17 17 18 20 20 21 23 24 18 29 14 36 19 27 16 19
20 18 18 18 18 18 18 19 18 18 17 15 15 17 15 13 10 8 7 8 10 13 16 19 21 19 17 17 16 18 20 23 22 21 16 13 11 40 16 36 11 25 32
23 20 19 18 19 20 19 19 20 19 17 15 15 13 12 12 9 7 7 8 11 16 21 23 23 20 18 17 17 18 20 21 22 23 21 22 23 28 27 11 43 25 38
27 24 21 19 20 21 20 20 19 20 19 17 14 13 12 10 7 5 6 10 15 19 22 24 24 22 19 18 18 20 21 22 22 22 26 29 27 32 31 40 31 35 33
28 24 21 21 22 20 20 19 19 19 18 16 15 12 10 8 6 5 6 9 14 18 22 24 23 21 20 19 20 21 22 24 24 25 27 27 29 32 32 35 42 41 38
29 27 24 22 22 21 20 19 19 19 18 16 14 11 8 6 3 3 6 10 14 19 23 24 22 20 20 20 21 23 24 25 27 27 31 27 30 32 30 33 41 41 43
28 26 24 22 22 21 20 19 18 18 17 14 12 9 6 3 1 4 8 12 16 19 22 22 21 19 19 21 23 25 26 28 28 30 30 30 32 30 31 35 35 46 45
30 27 24 22 22 21 19 19 18 16 15 12 10 7 4 2 3 6 10 14 17 20 21 20 19 19 21 23 25 27 30 30 31 30 30 33 34 34 32 32 35 34 43
30 28 26 23 21 20 20 18 16 15 13 11 8 6 4 3 5 8 12 16 18 20 19 18 19 21 23 25 28 30 32 32 30 30 34 35 34 35 35 34 33 34 34
31 30 27 23 22 22 20 18 17 14 13 11 9 6 4 5 7 10 14 17 19 19 18 19 21 23 26 28 31 33 33 32 29 33 38 35 36 36 34 36 35 35 32
30 29 27 25 24 22 21 18 16 15 13 11 9 7 6 6 9 13 16 18 18 17 18 20 23 25 29 31 33 33 33 28 33 40 38 38 36 36 36 34 35 34 40
28 28 27 27 24 21 20 18 16 15 13 11 9 8 7 7 11 14 17 18 18 18 20 22 25 28 31 33 33 33 28 32 40 40 40 38 35 34 34 35 39 40 39
29 29 28 26 22 20 19 17 16 15 13 11 9 8 6 9 13 16 17 18 19 20 21 24 27 30 32 33 34 27 35 39 40 42 39 31 29 32 36 38 37 33 35
29 29 28 24 21 20 18 17 16 15 12 11 9 6 7 10 14 17 18 18 19 21 24 28 30 32 32 33 28 31 33 37 41 40 30 30 31 31 32 33 36 38 43
30 27 26 22 23 22 20 18 17 15 12 10 7 6 8 11 15 18 18 18 20 24 27 30 32 32 32 30 29 28 32 36 39 34 34 32 34 32 33 35 37 36 38
24 24 23 22 22 21 20 18 16 13 11 8 6 6 9 13 16 17 17 20 23 27 29 31 32 31 32 31 27 28 31 33 35 33 34 35 35 38 40 39 38 39 37
23 22 20 20 20 20 17 15 14 11 10 7 6 7 11 13 15 17 19 22 26 29 31 31 32 32 34 30 28 28 30 33 34 34 34 35 40 41 37 41 42 46 43
15 17 19 21 21 18 17 14 12 10 7 5 6 8 11 13 15 18 21 25 28 30 30 31 32 33 33 31 28 27 30 35 36 34 32 36 39 37 38 41 45 45 44
18 19 19 18 16 16 13 12 10 8 6 4 6 10 12 14 17 20 24 27 28 30 31 33 33 32 32 30 25 26 31 34 35 35 40 37 36 38 39 41 44 38 44
16 14 13 13 12 11 11 10 8 6 4 5 8 10 12 15 19 22 25 27 29 31 32 34 33 32 27 28 27 28 29 32 37 41 41 39 39 38 40 39 35 39 40
15 13 12 11 10 10 11 8 7 4 4 6 8 10 13 17 20 23 26 27 30 32 34 35 35 33 33 28 29 26 28 30 36 40 42 44 40 41 37 35 36 34 36
12 11 9 10 10 10 9 7 5 3 5 7 8 11 15 18 20 24 27 28 30 31 33 33 36 39 37 37 31 28 30 34 36 40 40 38 38 35 37 34 34 32 37
10 8 8 8 9 8 7 5 2 3 5 7 10 13 16 19 23 25 27 29 30 30 31 33 35 37 38 36 36 35 38 37 41 42 39 36 35 34 34 36 38 37 36
8 7 7 7 6 7 6 3 2 4 6 8 11 14 18 22 26 26 27 28 26 24 27 29 31 33 35 35 33 34 36 39 39 38 38 41 37 37 38 39 39 40 38
6 8 9 8 6 6 3 2 3 4 7 10 13 16 21 25 26 28 31 29 29 25 23 23 24 28 28 30 32 33 36 36 34 34 36 35 36 37 38 39 42 42 41
Wind_Direction
170 140 141 137 131 124 120 120 121 127 142 148 165 174 177 164 148 135 115 90 62 43 23 4 350 345 341 339 338 337 341 345 345 341 338 344 327 336 312 313 315 318 305
160 150 139 138 140 137 135 135 141 148 155 167 166 158 144 129 118 104 91 66 39 17 2 354 348 344 341 341 343 345 347 348 355 347 347 334 329 318 323 331 325 312 305
161 157 156 153 150 145 144 148 154 159 164 161 147 136 127 117 110 99 69 37 19 6 357 353 349 346 344 346 348 347 349 345 344 344 349 334 310 320 327 322 315 303 315
162 163 158 152 146 138 139 139 135 130 125 126 126 128 124 124 107 78 38 19 7 4 358 352 349 346 345 344 344 341 340 338 335 332 330 323 315 317 316 317 309 314 314
162 164 163 161 151 148 147 145 144 143 145 145 145 138 131 116 105 77 36 12 2 355 354 347 342 337 335 334 332 332 333 331 327 327 324 325 319 319 309 310 309 311 311
161 163 168 164 157 152 147 146 147 142 143 144 143 142 136 125 108 70 30 6 349 345 345 340 334 330 328 327 326 325 327 328 325 322 320 319 310 313 310 305 307 307 308
163 166 170 170 161 156 154 153 153 147 149 150 150 147 138 126 91 28 359 349 342 340 338 332 327 323 322 321 321 323 324 326 323 318 317 315 307 311 306 304 305 305 307
168 175 171 171 166 162 161 162 161 158 159 161 159 154 147 139 13 348 344 338 337 335 331 326 323 322 321 321 322 322 324 324 320 315 315 311 311 309 302 303 304 307 306
172 173 174 176 173 169 171 172 172 170 170 171 169 167 174 224 311 327 332 333 333 329 328 326 325 323 323 323 324 323 323 321 317 315 312 311 309 307 304 300 302 301 306
172 173 174 180 176 174 180 182 182 182 184 186 188 195 214 273 304 320 329 332 330 328 329 327 325 325 325 324 322 321 319 317 316 310 310 310 308 305 304 304 300 299 297
172 174 175 180 180 185 186 187 192 193 194 197 206 219 246 279 304 323 329 329 330 330 330 328 326 325 324 321 319 319 320 317 313 307 312 308 306 306 304 303 302 299 299
172 174 175 178 188 192 188 195 197 201 204 209 219 231 254 285 314 324 328 331 329 329 327 325 325 324 322 321 320 320 319 314 303 309 312 311 308 305 306 304 303 300 298
172 174 179 185 194 192 193 198 203 212 211 215 224 239 264 300 316 326 331 330 329 327 326 326 324 323 323 322 322 320 313 301 304 313 315 313 311 310 308 306 304 303 299
175 177 184 192 194 195 198 202 207 219 216 216 227 248 279 308 325 331 329 329 328 327 327 326 325 325 324 323 322 316 306 311 311 315 318 317 315 310 308 307 306 305 303
180 183 184 189 191 194 198 205 214 221 216 218 233 255 293 320 329 331 330 328 328 330 328 327 327 327 324 319 314 310 311 311 311 318 322 320 312 308 306 306 307 308 306
183 184 185 190 191 197 201 208 217 221 216 219 232 267 309 326 333 334 330 331 333 331 329 329 327 323 319 314 313 313 311 310 316 324 322 320 314 314 309 306 305 304 306
181 183 186 189 192 199 210 214 218 215 211 218 244 288 316 331 337 333 333 333 333 331 329 327 324 322 319 320 316 315 312 310 319 322 319 317 314 314 315 313 306 309 315
174 178 181 184 190 198 207 212 212 205 206 224 264 303 321 333 336 333 334 333 331 329 327 326 326 322 323 323 319 317 311 316 318 320 320 314 318 319 315 310 314 313 318
157 167 179 186 190 200 207 205 199 199 207 240 291 315 322 335 335 333 333 332 328 328 328 328 327 327 327 322 320 319 316 315 317 316 315 316 319 317 315 314 317 317 312
156 165 177 184 191 193 195 193 192 197 218 272 307 320 334 339 335 334 332 330 327 329 330 330 330 328 324 326 322 319 317 316 317 319 318 322 317 317 316 318 317 316 320
155 161 165 170 176 176 175 183 193 207 241 290 313 337 341 336 334 330 328 330 332 331 331 330 330 328 325 319 321 321 319 319 318 319 323 320 320 318 319 317 318 317 316
138 144 152 159 164 166 180 192 199 219 275 317 339 340 336 335 331 329 331 333 332 331 330 329 329 329 326 322 323 324 320 319 321 321 319 320 320 320 320 318 319 318 317
139 149 158 162 163 177 191 199 206 257 325 340 338 337 335 332 333 333 333 331 332 329 327 326 325 328 330 331 332 327 327 323 322 319 320 318 321 321 320 324 322 322 329
148 163 169 173 177 182 191 205 234 314 332 331 333 335 335 335 333 333 333 333 331 327 327 324 323 322 323 329 333 328 326 326 324 326 325 323 323 325 326 328 331 331 327
161 175 181 188 187 181 194 214 290 319 319 327 333 335 333 333 334 333 334 330 329 325 320 317 318 319 320 324 323 322 324 324 325 325 323 328 331 330 330 329 329 330 328
174 176 182 200 196 195 208 242 284 304 320 330 334 334 333 332 332 333 331 333 330 327 321 317 316 317 315 319 320 321 324 325 327 325 329 330 329 328 327 326 328 330 329
Height
1466 1469 1471 1471 1470 1472 1472 1473 1475 1478 1480 1483 1483 1485 1486 1489 1490 1491 1493 1493 1493 1492 1491 1491 1490 1488 1485 1482 1480 1478 1475 1473 1470 1465 1460 1458 1458 1456 1454 1452 1448 1445 1441
1466 1469 1471 1471 1470 1471 1472 1474 1476 1478 1480 1480 1481 1484 1486 1488 1491 1492 1493 1493 1492 1491 1491 1489 1487 1485 1482 1480 1478 1475 1472 1471 1468 1464 1459 1454 1451 1451 1448 1445 1442 1439 1437
1463 1467 1469 1469 1469 1470 1471 1474 1476 1478 1479 1480 1482 1484 1487 1489 1491 1492 1492 1492 1492 1491 1489 1487 1485 1483 1480 1478 1475 1473 1471 1467 1467 1465 1464 1457 1451 1443 1439 1438 1435 1434 1430
1459 1466 1467 1468 1469 1470 1473 1475 1477 1478 1480 1482 1483 1485 1487 1488 1490 1491 1491 1491 1490 1489 1487 1484 1482 1480 1478 1476 1474 1472 1470 1467 1464 1462 1462 1460 1455 1448 1431 1431 1429 1427 1423
1456 1462 1465 1466 1469 1471 1473 1475 1477 1478 1480 1482 1484 1485 1487 1489 1490 1490 1489 1488 1486 1486 1484 1482 1480 1478 1476 1474 1472 1470 1467 1465 1463 1460 1456 1453 1449 1446 1440 1419 1419 1418 1416
1454 1460 1463 1465 1468 1471 1473 1476 1477 1478 1480 1481 1483 1485 1486 1487 1488 1487 1487 1486 1485 1484 1482 1480 1478 1475 1473 1471 1469 1467 1465 1462 1459 1456 1453 1449 1445 1440 1435 1425 1414 1409 1406
1452 1456 1459 1464 1468 1470 1473 1476 1477 1478 1479 1481 1483 1484 1484 1485 1486 1486 1485 1485 1484 1482 1480 1477 1475 1473 1470 1468 1466 1464 1461 1458 1455 1452 1448 1445 1441 1436 1431 1425 1412 1403 1398
1450 1454 1458 1463 1466 1469 1473 1475 1476 1477 1478 1480 1481 1482 1482 1483 1484 1484 1484 1483 1482 1479 1477 1474 1472 1470 1468 1465 1463 1460 1457 1454 1450 1447 1443 1439 1434 1431 1427 1421 1414 1397 1390
1447 1452 1458 1461 1465 1469 1472 1473 1475 1476 1477 1478 1479 1480 1481 1482 1482 1482 1482 1481 1479 1476 1473 1471 1469 1467 1465 1462 1459 1456 1452 1449 1445 1440 1437 1433 1428 1424 1420 1416 1412 1406 1387
1445 1451 1456 1460 1464 1468 1470 1472 1473 1474 1475 1477 1478 1479 1480 1480 1480 1480 1479 1478 1475 1473 1470 1468 1466 1463 1461 1458 1454 1451 1447 1442 1438 1435 1430 1426 1421 1417 1412 1408 1404 1401 1395
1442 1448 1453 1458 1462 1465 1468 1469 1471 1472 1473 1475 1476 1477 1478 1478 1478 1477 1476 1474 1472 1469 1467 1464 1462 1460 1457 1454 1449 1445 1441 1436 1432 1429 1423 1418 1414 1409 1405 1401 1397 1392 1388
1440 1446 1451 1455 1459 1462 1465 1467 1469 1470 1472 1473 1474 1475 1475 1476 1476 1475 1473 1471 1469 1466 1464 1461 1459 1456 1453 1449 1444 1439 1435 1431 1426 1421 1416 1410 1406 1401 1398 1394 1389 1385 1380
1439 1445 1449 1453 1456 1460 1462 1464 1466 1467 1469 1470 1471 1472 1473 1474 1473 1472 1470 1468 1465 1463 1461 1458 1455 1452 1448 1443 1439 1434 1430 1426 1421 1415 1409 1403 1399 1394 1391 1387 1382 1376 1370
1436 1442 1446 1450 1454 1457 1460 1462 1463 1465 1467 1468 1469 1470 1471 1471 1470 1469 1467 1465 1462 1460 1457 1454 1451 1447 1442 1438 1434 1430 1425 1419 1414 1408 1403 1398 1394 1390 1385 1379 1374 1369 1363
1433 1438 1443 1448 1452 1455 1457 1459 1461 1462 1464 1466 1467 1468 1468 1468 1468 1466 1464 1462 1459 1456 1454 1451 1447 1442 1438 1434 1430 1425 1419 1413 1406 1402 1397 1393 1390 1386 1381 1376 1368 1362 1355
1430 1436 1441 1446 1449 1451 1454 1456 1458 1460 1462 1463 1465 1466 1466 1466 1464 1463 1460 1458 1456 1453 1450 1446 1442 1438 1435 1431 1426 1421 1414 1408 1402 1395 1391 1388 1384 1379 1374 1368 1363 1357 1348
1429 1434 1439 1444 1447 1449 1451 1453 1455 1458 1459 1461 1463 1463 1463 1463 1461 1459 1457 1455 1453 1449 1445 1441 1437 1433 1429 1424 1420 1415 1409 1402 1397 1392 1387 1382 1378 1373 1365 1357 1352 1345 1340
1427 1433 1437 1442 1445 1447 1449 1451 1453 1456 1458 1460 1461 1461 1460 1459 1457 1456 1454 1451 1448 1445 1440 1436 1432 1427 1422 1418 1414 1409 1403 1397 1393 1388 1383 1377 1370 1365 1359 1350 1343 1336 1330
1427 1431 1435 1439 1442 1444 1446 1449 1452 1454 1457 1458 1458 1458 1458 1456 1455 1452 1450 1447 1444 1440 1436 1431 1426 1421 1416 1413 1408 1404 1398 1392 1387 1382 1378 1373 1365 1359 1353 1344 1334 1327 1319
1427 1430 1434 1437 1440 1442 1445 1448 1450 1453 1455 1456 1456 1456 1454 1453 1451 1449 1447 1444 1440 1435 1430 1426 1422 1417 1412 1408 1404 1401 1395 1388 1381 1376 1370 1366 1361 1353 1345 1337 1329 1318 1311
1428 1431 1434 1436 1439 1442 1445 1447 1450 1452 1453 1454 1453 1452 1451 1450 1448 1446 1444 1439 1434 1431 1426 1421 1416 1412 1408 1403 1400 1396 1391 1385 1377 1369 1362 1357 1352 1345 1338 1331 1322 1316 1307
1428 1431 1433 1436 1439 1442 1444 1446 1449 1450 1451 1451 1450 1449 1449 1447 1445 1442 1439 1435 1431 1426 1421 1416 1411 1407 1403 1399 1394 1391 1387 1381 1374 1366 1358 1351 1344 1338 1331 1324 1318 1310 1302
1429 1431 1434 1436 1439 1442 1444 1445 1447 1448 1449 1448 1448 1447 1446 1445 1442 1438 1434 1431 1427 1422 1417 1412 1406 1401 1398 1393 1389 1385 1381 1375 1369 1362 1353 1345 1339 1332 1324 1318 1312 1305 1296
1429 1431 1433 1435 1438 1440 1442 1444 1445 1446 1446 1446 1446 1445 1443 1441 1438 1435 1432 1427 1423 1418 1413 1409 1404 1398 1394 1389 1384 1379 1374 1369 1361 1353 1345 1339 1333 1327 1320 1311 1304 1298 1292
1429 1431 1433 1434 1437 1439 1441 1442 1443 1444 1444 1444 1443 1442 1439 1437 1434 1431 1427 1423 1420 1417 1412 1408 1403 1397 1391 1387 1384 1378 1371 1364 1357 1348 1340 1333 1327 1320 1313 1306 1300 1293 1286
1428 1430 1432 1434 1436 1438 1439 1440 1441 1442 1442 1441 1440 1438 1436 1433 1430 1425 1421 1420 1416 1413 1410 1406 1401 1396 1391 1385 1380 1373 1367 1360 1352 1344 1337 1330 1324 1317 1310 1302 1295 1288 1281